Weather in Rankin Inlet

Canada     62°48′42″N   92°04′58″W
temp.,
°C
wind,
m/s
gust,
m/s
humid.,
%
clouds,
%
prec.,
mm/h
press.,
hPa
HPBL,
m
28 january, fri
fri2800:00−32nw612925 0.0 1012187
03:00−33nw612925 0.0 1014172
06:00−33nw6119214 0.0 1014167
09:00−33nw51092100 0.0 1014155
12:00−30nw51091100 0.0 1013258
15:00−28wnw61190100 0.0 1012332
18:00−29wnw61191100 0.0 1012277
21:00−29nw6129397 0.0 1011248
29 january, sat
sat2900:00−31nw6119223 0.0 1011202
03:00−32nw713918 0.0 1012220
06:00−32nw713925 0.0 1013210
09:00−32nw612925 0.0 1014191
12:00−31nw511928 0.0 1015209
15:00−29wnw5991100 0.0 1015262
18:00−26wnw5994100 0.1 1015329
21:00−25wnw4694100 0.1 1015313
30 january, sun
sun3000:00−27wnw459777 0.1 101553
03:00−27nw359799 0.0 101579
06:00−28nw349861 0.0 101672
09:00−32nw46985 0.0 101660
12:00−31nw47965 0.0 1016100
15:00−32nw35955 0.0 101768
18:00−34nw34975 0.0 101635
21:00−35wnw239875 0.0 101535
31 january, mon
mon3100:00−31wsw2394100 0.0 1014110
03:00−30sw3594100 0.0 1012145
06:00−29ssw4795100 0.0 1010157
09:00−27ssw5794100 0.0 1009236
12:00−24sw5795100 0.3 1008327
15:00−24w3594100 0.1 1008393
18:00−25nw4594100 0.2 1009264
21:00−27nnw4694100 0.0 1010222
1 february, tue
tue100:00−27nnw5794100 0.1 1010287
03:00−28nnw5794100 0.1 1011280
06:00−29nnw6794100 0.1 1012249
09:00−29nnw6794100 0.1 1012249
12:00−28nnw6794100 0.1 1011260
15:00−27n5794100 0.1 1011308
18:00−25n61096100 0.2 1011296
21:00−24n81191100 0.1 1011431